User: anonymous   Login
Location: Unspecified
(0.0000°N, 0.0000°E)
Time: 22:40:23
(UTC+00:00)
Language:

OBJECT K - Orbit

View from above orbital plane
View from above orbital plane
View from above satellite
View from above satellite

Ground track
Ground track

The orbit data is extracted from the following two-line orbital elements,

1 42834U 17042K   18344.28173969  .00000207  00000-0  26282-4 0  9993
2 42834  97.5827 240.0246 0013060 342.3074  17.7688 14.91093795 76572
Epoch (UTC): 10 December 2018 06:45:42
Eccentricity: 0.0013060
inclination: 97.5827°
perigee height: 585 km
apogee height: 603 km
right ascension of ascending node: 240.0246°
argument of perigee: 342.3074°
revolutions per day: 14.91093795
mean anomaly at epoch: 17.7688°
orbit number at epoch: 7657

The dashed part of the orbit path shows where the satellite is in the earth's shadow,  

DLR